Weather History for Benton Harbor, MI

Change the Weather History Date:

Thursday, February 7, 2013

  Actual Average Record
Temperature  
Mean Temperature 32 °F -  
Max Temperature 37 °F 30 °F 55 °F (2009)
Min Temperature 28 °F 15 °F -13 °F (1978)
Degree Days  
Heating Degree Days 32    
Moisture  
Dew Point 28 °F    
Average Humidity 85    
Maximum Humidity 100    
Minimum Humidity 70    
Precipitation  
Precipitation 0.52 in - - ()
Sea Level Pressure  
Sea Level Pressure 29.99 in    
Wind  
Wind Speed 6 mph (ESE)    
Max Wind Speed 12 mph    
Max Gust Speed -    
Visibility 3 miles    
Events Fog , Rain , Snow    
Averages and records for this station are not official NWS values.
T = Trace of Precipitation, MM = Missing Value Source: NWS Daily Summary

Daily Weather History Graph

Daily Weather History Graph

Search for Another Location

Airport:

Trip Planner

Search our weather history database for the weather conditions in past years. The results will help you decide how hot, cold, wet, or windy it might be!

Date:

Astronomy

Feb. 07, 2013 Rise Set
Actual Time 7:51 AM EST 6:08 PM EST
Civil Twilight 7:22 AM EST 6:37 PM EST
Nautical Twilight 6:49 AM EST 7:10 PM EST
Astronomical Twilight 6:16 AM EST 7:43 PM EST
Moon 5:32 AM EST (2/7) 3:30 PM EST (2/7)
Length of Visible Light 11h 15m
Length of Day
10h 16m
Waning Crescent, 9% of the Moon is Illuminated
Feb 7
Waning Crescent
Feb 10
New
Feb 17
First Quarter
Feb 25
Full
Mar 4
Last Quarter

Hourly Weather History & Observations

Time (EST) Temp. Windchill Dew Point Humidity Pressure Visibility Wind Dir Wind Speed Gust Speed Precip Events Conditions
12:53 AM 30.9 °F 26.2 °F 23.0 °F 72% 30.19 in 7.0 mi SSE 4.6 mph - N/A   Overcast
1:53 AM 30.9 °F - 24.1 °F 76% 30.19 in 6.0 mi Calm Calm - N/A   Haze
2:53 AM 30.0 °F 23.2 °F 24.1 °F 79% 30.17 in 6.0 mi ESE 6.9 mph - N/A   Haze
3:53 AM 30.0 °F 23.2 °F 23.0 °F 75% 30.16 in 6.0 mi ESE 6.9 mph - N/A   Haze
4:53 AM 28.9 °F 21.1 °F 23.0 °F 78% 30.16 in 6.0 mi ESE 8.1 mph - N/A   Haze
5:53 AM 28.9 °F 20.4 °F 23.0 °F 78% 30.15 in 6.0 mi ESE 9.2 mph - N/A   Haze
6:53 AM 30.0 °F 21.7 °F 23.0 °F 75% 30.14 in 5.0 mi SE 9.2 mph - N/A   Haze
7:53 AM 30.0 °F 21.1 °F 23.0 °F 75% 30.14 in 5.0 mi SE 10.4 mph - N/A   Haze
8:51 AM 30.2 °F 21.3 °F 24.8 °F 80% 30.11 in 1.8 mi ESE 10.4 mph - 0.00 in Snow Light Snow
8:52 AM 30.0 °F 21.7 °F 24.1 °F 79% 30.13 in 1.5 mi ESE 9.2 mph - 0.00 in Snow Light Snow
9:00 AM 30.2 °F 21.9 °F 24.8 °F 80% 30.10 in 1.0 mi ESE 9.2 mph - 0.00 in Snow Light Snow
9:22 AM 30.2 °F 20.8 °F 24.8 °F 80% 30.10 in 1.5 mi SE 11.5 mph - 0.00 in Snow Light Snow
9:32 AM 30.2 °F 20.8 °F 24.8 °F 80% 30.09 in 0.8 mi SE 11.5 mph - 0.01 in Snow Light Snow
9:53 AM 30.0 °F 21.1 °F 26.1 °F 85% 30.10 in 1.8 mi ESE 10.4 mph - 0.03 in   Overcast
10:03 AM 30.2 °F 21.3 °F 26.6 °F 86% 30.08 in 2.0 mi ESE 10.4 mph - 0.01 in   Overcast
10:20 AM 30.2 °F 21.3 °F 26.6 °F 86% 30.07 in 2.0 mi SE 10.4 mph - 0.03 in Rain Light Freezing Rain
10:23 AM 30.2 °F 21.3 °F 26.6 °F 86% 30.06 in 1.8 mi SE 10.4 mph - 0.04 in Rain Light Freezing Rain
10:36 AM 30.2 °F 21.3 °F 26.6 °F 86% 30.06 in 1.8 mi ESE 10.4 mph - 0.05 in Rain Light Freezing Rain
10:43 AM 30.2 °F 21.3 °F 26.6 °F 86% 30.06 in 1.5 mi ESE 10.4 mph - 0.06 in Rain Light Freezing Rain
10:53 AM 30.9 °F 22.8 °F 28.0 °F 89% 30.08 in 1.2 mi SE 9.2 mph - 0.09 in Rain Light Freezing Rain
11:25 AM 30.2 °F 21.3 °F 28.4 °F 93% 30.05 in 1.5 mi SE 10.4 mph - 0.07 in Rain Light Freezing Rain
11:29 AM 32.0 °F 23.6 °F 28.4 °F 87% 30.05 in 1.8 mi SE 10.4 mph - 0.08 in   Overcast
11:39 AM 32.0 °F 24.8 °F 28.4 °F 87% 30.05 in 2.0 mi ESE 8.1 mph - 0.08 in   Overcast
11:53 AM 32.0 °F 24.8 °F 28.0 °F 85% 30.07 in 1.8 mi ESE 8.1 mph - 0.10 in   Overcast
12:17 PM 32.0 °F 27.5 °F 28.4 °F 87% 30.04 in 1.8 mi East 4.6 mph - 0.01 in   Overcast
12:28 PM 32.0 °F 24.8 °F 28.4 °F 87% 30.03 in 2.0 mi East 8.1 mph - 0.02 in   Overcast
12:53 PM 33.1 °F 27.7 °F 28.9 °F 85% 30.03 in 2.5 mi East 5.8 mph - 0.02 in   Overcast
1:53 PM 35.1 °F 31.0 °F 30.0 °F 82% 29.99 in 3.0 mi East 4.6 mph - N/A   Haze
2:22 PM 35.6 °F 31.7 °F 30.2 °F 81% 29.95 in 2.5 mi ENE 4.6 mph - N/A   Overcast
2:36 PM 35.6 °F 30.7 °F 30.2 °F 81% 29.94 in 3.0 mi ENE 5.8 mph - N/A   Haze
2:53 PM 37.0 °F - 32.0 °F 82% 29.96 in 3.0 mi Calm Calm - N/A   Haze
3:53 PM 37.9 °F 32.7 °F 28.9 °F 70% 29.93 in 5.0 mi East 6.9 mph - N/A   Haze
4:53 PM 37.0 °F 29.8 °F 28.0 °F 70% 29.89 in 5.0 mi East 10.4 mph - N/A   Haze
5:53 PM 37.0 °F 33.3 °F 28.9 °F 73% 29.88 in 5.0 mi East 4.6 mph - N/A   Haze
6:53 PM 37.0 °F - 28.9 °F 73% 29.89 in 7.0 mi Calm Calm - N/A   Overcast
7:07 PM 35.6 °F - 28.4 °F 75% 29.88 in 3.0 mi Calm Calm - 0.00 in Snow Light Snow
7:14 PM 35.6 °F - 30.2 °F 81% 29.88 in 1.8 mi Calm Calm - 0.01 in Snow Light Snow
7:25 PM 33.8 °F - 30.2 °F 87% 29.88 in 1.0 mi Calm Calm - 0.02 in Snow Light Snow
7:37 PM 33.8 °F 29.6 °F 30.2 °F 87% 29.87 in 0.8 mi ENE 4.6 mph - 0.05 in Snow Light Snow
7:53 PM 33.1 °F 30.0 °F 32.0 °F 96% 29.88 in 0.8 mi NE 3.5 mph - 0.08 in Snow Light Snow
8:09 PM 33.8 °F 29.6 °F 32.0 °F 93% 29.86 in 0.5 mi East 4.6 mph - 0.05 in Fog , Snow Snow
8:18 PM 33.8 °F 29.6 °F 30.2 °F 87% 29.86 in 0.8 mi East 4.6 mph - 0.07 in Snow Light Snow
8:24 PM 33.8 °F 29.6 °F 30.2 °F 87% 29.86 in 1.0 mi ENE 4.6 mph - 0.08 in Snow Light Snow
8:41 PM 33.8 °F 29.6 °F 32.0 °F 93% 29.85 in 1.5 mi ENE 4.6 mph - 0.12 in Rain Rain
8:53 PM 33.1 °F 26.9 °F 32.0 °F 96% 29.87 in 1.8 mi ENE 6.9 mph - 0.13 in Snow Light Snow
9:24 PM 33.8 °F 30.8 °F 32.0 °F 93% 29.84 in 2.0 mi ESE 3.5 mph - 0.03 in Rain Light Rain
9:41 PM 33.8 °F 27.7 °F 32.0 °F 93% 29.84 in 2.0 mi ENE 6.9 mph - 0.04 in Rain Light Rain
9:53 PM 33.1 °F 28.7 °F 32.0 °F 96% 29.86 in 2.0 mi ENE 4.6 mph - 0.05 in Rain Light Rain
10:12 PM 33.8 °F 30.8 °F 32.0 °F 93% 29.84 in 1.5 mi NW 3.5 mph - 0.01 in   Overcast
10:53 PM 33.1 °F - 32.0 °F 96% 29.85 in 1.8 mi Calm Calm - 0.02 in   Overcast
11:01 PM 33.8 °F - 33.8 °F 100% 29.83 in 2.0 mi Calm Calm - 0.00 in   Overcast
11:19 PM 33.8 °F - 32.0 °F 93% 29.83 in 1.8 mi Calm Calm - 0.00 in   Overcast
11:36 PM 33.8 °F - 33.8 °F 100% 29.83 in 1.2 mi Calm Calm - 0.00 in Snow Light Snow
11:53 PM 33.1 °F - 33.1 °F 100% 29.86 in 1.2 mi Calm Calm - 0.00 in Snow Light Snow